Regional Weather Roundup
Issued by NWS Cleveland, OH

Home | Current Version | Previous Version | Graphics & Text | Print | Product List | Glossary On
Versions: 1 2 3 4 5 6 7 8 9 10 11 12 13 14 15 16 17 18 19 20 21 22 23 24 25 26 27 28 29 30 31 32 33 34 35 36 37 38 39 40 41 42 43 44 45 46 47 48 49 50
000
ASUS41 KCLE 151910
RWRCLE
OHIO REGIONAL WEATHER ROUNDUP
NATIONAL WEATHER SERVICE CLEVELAND, OH
300 PM EDT MON SEP 15 2014

NOTE: "FAIR" INDICATES FEW OR NO CLOUDS BELOW 12,000 FEET WITH NO
SIGNIFICANT WEATHER AND/OR OBSTRUCTIONS TO VISIBILITY.

OHZ001>008-015>018-024>027-034-035-043-044-152000-
   NORTHWEST OHIO

CITY           SKY/WX    TMP DP  RH WIND       PRES   REMARKS
DEFIANCE       CLOUDY    60  52  74 CALM      30.14F
FINDLAY        LGT RAIN  61  55  81 W5        30.13F
TOLEDO EXPRESS CLOUDY    60  52  74 SW3       30.13F
TOLEDO EXEC    CLOUDY    62  49  62 SW9       30.14F
LIMA           LGT RAIN  61  57  87 NW5       30.15S FOG
$$

OHZ009>014-019>023-028>033-038-089-152000-
   NORTHEAST OHIO

CITY           SKY/WX    TMP DP  RH WIND       PRES   REMARKS
CLE-HOPKINS    CLOUDY    64  54  69 NW7       30.14F
CLE-LAKEFRONT  CLOUDY    66  51  58 SW3       30.10F
CUY CO. ARPT   PTSUNNY   66  54  63 N6        30.12F
LORAIN-ELYRIA  CLOUDY    67  53  61 NW9       30.13S
ASHTABULA      PTSUNNY   63  48  58 SW8       30.14F
AKRON-CANTON   PTSUNNY   69  49  48 S12       30.10F
WOOSTER        PTSUNNY   68  51  54 S10       30.09F
MANSFIELD      MOSUNNY   68  48  49 SW12      30.13F
YOUNGSTOWN     CLOUDY    64  48  56 W9        30.16R
$$

OHZ042-051>053-060>062-070>072-077>081-152000-
  SOUTHWEST OHIO

CITY           SKY/WX    TMP DP  RH WIND       PRES   REMARKS
CINC-COVINGTON CLOUDY    70  51  51 CALM      30.15F
CINC-LUNKEN    PTSUNNY   71  52  50 SW5       30.15F
HAMILTON       CLOUDY    71  53  52 VRB5      30.16F
DAYTON         CLOUDY    70  50  49 SW7       30.16R
WRIGHT-PAT AFB PTSUNNY   70  51  51 SW6       30.15R
DAYTON GENERAL PTSUNNY   67  52  58 S9        30.16R
WILMINGTON     PTSUNNY   69  50  50 SW8       30.15S
$$

OHZ036-037-039>041-045>050-054>059-063>069-073>076-082>088-152000-
  CENTRAL AND SOUTHEAST OHIO

CITY           SKY/WX    TMP DP  RH WIND       PRES   REMARKS
COLUMBUS       CLOUDY    72  47  40 SW8       30.12F
OSU AIRPORT    PTSUNNY   69  47  45 S9        30.12F
BOLTON FIELD   SUNNY     70  54  56 S8        30.13F
RICKENBACK AFB PTSUNNY   71  47  42 S9        30.12F
NEWARK         PTSUNNY   69  48  47 VRB7      30.12F
MARION         CLOUDY    69  49  48 SW10      30.13R
LANCASTER      MOSUNNY   72  48  42 VRB5      30.13F
ZANESVILLE     PTSUNNY   70  48  45 S10       30.13F
NEW PHILLY     MOSUNNY   68  50  52 VRB6      30.15S
$$



USA.gov is the U.S. government's official web portal to all federal, state and local government web resources and services.